Regional Weather Roundup
Issued by NWS Albany, NY

Home | Current Version | Previous Version | Text Only | Print | Product List | Glossary On
Versions: 1 2 3 4 5 6 7 8 9 10 11 12 13 14 15 16 17 18 19 20 21 22 23 24 25 26 27 28 29 30 31 32 33 34 35 36 37 38 39 40 41 42 43 44 45 46 47 48 49 50
268
ASUS41 KALY 171510
RWRALY

NEW YORK STATE HOURLY WEATHER ROUNDUP
NATIONAL WEATHER SERVICE ALBANY NY
1000 AM EST SAT FEB 17 2018

NOTE: "FAIR" INDICATES FEW OR NO CLOUDS BELOW 12,000 FEET WITH NO
SIGNIFICANT WEATHER AND/OR NO OBSTRUCTIONS TO VISIBILITY.

NYZ032-033-038>043-046>054-057>066-NYZ062>081-082-084-171600-
EAST


CITY           SKY/WX    TMP DP  RH WIND       PRES   REMARKS
ALBANY         PTSUNNY   29  13  51 VRB5      30.39S WCI  24
GLENS FALLS    FAIR      24  13  62 CALM      30.36F
POUGHKEEPSIE   FAIR      31  16  54 CALM      30.41S
NEWBURGH       MOSUNNY   30  19  64 VRB5      30.40S WCI  25
MONTGOMERY     FAIR      31  17  56 CALM      30.38F
WHITE PLAINS   FAIR      32  16  51 VRB5      30.38F WCI  27
ISLIP          PTSUNNY   35  17  47 NE9       30.40F WCI  28
NEW YORK CITY  PTSUNNY   34  17  50 NE12      30.40F WCI  25
CENTRAL PARK   FAIR      34  17  50 NE8       30.41F WCI  27
$$

NYZ005>009-017-018-044>046-055-056-171600-
CENTRAL


CITY           SKY/WX    TMP DP  RH WIND       PRES   REMARKS
FULTON         FAIR      27  16  63 S7        30.30F WCI  19
SYRACUSE       CLOUDY    27  16  63 SE8       30.31F WCI  19
ROME           FAIR      26  17  68 SE5       30.34F WCI  20
ELMIRA         FAIR      26  16  65 NE3       30.29F
BINGHAMTON     FAIR      22  13  68 SE8       30.25F WCI  12
MONTICELLO     FAIR      26  16  65 SE8       30.32F WCI  18
$$

NYZ026>034-041>043-087-171600-
NORTH


CITY           SKY/WX    TMP DP  RH WIND       PRES   REMARKS
WATERTOWN      FAIR      26  17  68 S10G16    30.31F WCI  16
FORT DRUM      NOT AVBL
OGDENSBURG     FAIR      25  16  69 MISG      30.32F
MASSENA        FAIR      21  13  71 S14       30.34S WCI   8
SARANAC LAKE   FAIR      18   9  68 SW14      30.21F WCI   4
PLATTSBURGH    MIX PCPN  27   8  44 S10       30.33F WCI  17
$$

NYZ001>004-010>016-019>021-085-171600-
WEST


CITY           SKY/WX    TMP DP  RH WIND       PRES   REMARKS
NIAGARA FALLS  FAIR      29  16  58 S10       30.25F WCI  20
BUFFALO        CLOUDY    28  17  63 S13       30.24F WCI  17
DUNKIRK        FAIR      27  17  66 S12       30.25F WCI  17
JAMESTOWN        N/A     22  16  78 MISG        N/A
WELLSVILLE     FAIR      23  14  68 S8        30.19F WCI  14
ROCHESTER      CLOUDY    28  18  66 S7        30.27F WCI  21
PENN YAN       FAIR      25  13  60 SW8       30.27F WCI  16
$$

             KEY
       WCI = WIND CHILL INDEX
       VSB = VISIBILITY
       HX  = HEAT INDEX
$$




USA.gov is the U.S. government's official web portal to all federal, state and local government web resources and services.